Location: Anmer
(52.8333°N, 0.5833°E)
Time: 21:07:29
(UTC+00:00)

BREEZE-M DEB (TANK) - Pass Details

Date: 15 May 2026
Orbit: 262 x 12018 km, 49.5° (Epoch: 6 June)

Event Time Altitude Azimuth Distance (km) Brightness Sun altitude
Rises 21:13:52 0° 255° (WSW) 3,148 6.5 -10.2°
Reaches altitude 10° 21:17:01 10° 247° (WSW) 1,558 4.8 -10.5°
Maximum altitude 21:19:42 35° 177° (S) 506 1.7 -10.8°
Enters shadow 21:20:43 20° 122° (ESE) 704 2.3 -10.8°
